Location: The Jewett Observatory
(46.7288°N, 117.1525°W)
Time: 15:52:46
(UTC-07:00)

Meteor 1-28 Rocket - Visible Passes

Search period start: 19 April 2018 00:00
Search period end: 29 April 2018 00:00
Orbit: 506 x 524 km, 97.2° (Epoch: 18 April)

Date Brightness Start Highest point End Pass type
(mag) Time Alt. Az. Time Alt. Az. Time Alt. Az.
19 Apr 3.3 05:08:28 10° SSE 05:12:12 85° ENE 05:15:59 10° N visible
20 Apr 4.0 04:53:29 10° SSE 04:57:08 56° ENE 05:00:50 10° N visible
21 Apr 4.9 04:38:38 10° SE 04:42:06 37° ENE 04:45:37 10° N visible
22 Apr 5.6 04:23:57 10° SE 04:27:06 26° ENE 04:30:17 10° N visible
23 Apr 6.2 04:09:29 10° ESE 04:12:08 19° ENE 04:14:49 10° NNE visible
24 Apr 6.5 03:55:19 10° E 03:57:12 13° ENE 03:59:06 10° NNE visible
25 Apr 3.2 05:11:57 10° SSE 05:15:43 86° WSW 05:19:31 10° NNW visible
26 Apr 3.8 04:56:56 10° SSE 05:00:38 63° ENE 05:04:24 10° N visible
27 Apr 4.7 04:42:03 10° SE 04:45:36 42° ENE 04:49:12 10° N visible
28 Apr 5.5 04:27:18 10° SE 04:30:35 29° ENE 04:33:54 10° N visible
